EW5004 Weather Reports


Display with metric or nautical units.
time (UTC)temp
F
wind
direction
speed
MPH
gust
MPH
rain 1hr
in
rain 24hr
in
rain mn
in
humidity
%
barometer
mb
20260906020017 61 86 0.0 0.0 0.00 0.00 0.00 100 1014.3
20260906014506 61 86 0.0 0.0 0.00 0.00 0.00 100 1014.3
20260906013002 61 86 0.0 0.0 0.00 0.00 0.00 100 1014.3
20260906011558 62 86 0.0 0.0 0.00 0.00 0.00 100 1014.1
20260906010055 62 86 0.0 0.0 0.00 0.00 0.00 100 1014.0
20260906004548 63 86 0.0 0.0 0.00 0.00 0.00 100 1013.9
20260906003044 64 86 0.0 0.0 0.00 0.00 0.00 3 1013.7
20260906001540 65 86 0.0 0.0 0.00 0.00 0.00 21 1013.5
20260906000036 68 86 0.0 2.0 0.00 0.00 0.00 43 1013.3
20260905234530 69 86 2.0 4.0 0.00 0.00 0.00 57 1013.3
20260905233033 70 74 1.0 7.0 0.00 0.00 0.00 59 1013.4
20260905231527 71 61 1.0 4.0 0.00 0.00 0.00 61 1013.4
20260905230022 71 111 2.0 8.0 0.00 0.00 0.00 61 1013.4
20260905224513 72 90 4.0 8.0 0.00 0.00 0.00 61 1013.5
20260905223009 73 88 4.0 8.0 0.00 0.00 0.00 61 1013.4
20260905221506 73 140 4.0 7.0 0.00 0.00 0.00 60 1013.5
20260905220113 73 106 6.0 8.0 0.00 0.00 0.00 60 1013.4
20260905214558 73 96 4.0 9.0 0.00 0.00 0.00 58 1013.3
20260905213051 74 120 4.0 10.0 0.00 0.00 0.00 59 1013.2
20260905211547 74 102 3.0 8.0 0.00 0.00 0.00 58 1013.0
20260905210055 74 106 6.0 10.0 0.00 0.00 0.00 56 1013.0
20260905204539 74 157 6.0 10.0 0.00 0.00 0.00 55 1013.1
20260905203041 73 123 7.0 13.0 0.00 0.00 0.00 55 1013.2
20260905201530 74 94 7.0 12.0 0.00 0.00 0.00 59 1013.2
20260905200027 73 89 5.0 11.0 0.00 0.00 0.00 59 1013.3
20260905194521 73 70 7.0 12.0 0.00 0.00 0.00 61 1013.3
20260905193017 73 85 8.0 18.0 0.00 0.00 0.00 60 1013.4
20260905191512 73 95 9.0 17.0 0.00 0.00 0.00 61 1013.5
20260905190009 73 102 7.0 12.0 0.00 0.00 0.00 61 1013.5
20260905184508 73 146 9.0 16.0 0.00 0.00 0.00 61 1013.5
20260905183102 74 131 7.0 14.0 0.00 0.00 0.00 60 1013.5
20260905181627 73 82 7.0 17.0 0.00 0.00 0.00 61 1013.5
20260905180051 74 88 8.0 13.0 0.00 0.00 0.00 60 1013.4
20260905174548 74 142 8.0 13.0 0.00 0.00 0.00 60 1013.6
20260905173041 74 131 4.0 9.0 0.00 0.00 0.00 58 1013.6
20260905171550 74 30 3.0 9.0 0.00 0.00 0.00 58 1013.8
20260905170033 74 96 5.0 13.0 0.00 0.00 0.00 56 1013.9
20260905164528 74 133 3.0 12.0 0.00 0.00 0.00 58 1013.7
20260905163030 74 73 5.0 11.0 0.00 0.00 0.00 55 1013.8
20260905161518 73 130 7.0 13.0 0.00 0.00 0.00 55 1014.0
20260905160014 73 128 6.0 11.0 0.00 0.00 0.00 51 1013.9
20260905154509 73 144 6.0 11.0 0.00 0.00 0.00 52 1013.8
20260905153005 72 121 5.0 13.0 0.00 0.00 0.00 49 1013.7
20260905151501 73 111 6.0 15.0 0.00 0.00 0.00 49 1013.7
20260905150105 72 140 2.0 10.0 0.00 0.00 0.00 44 1013.6
20260905144552 72 91 4.0 9.0 0.00 0.00 0.00 37 1013.6
20260905143052 71 187 7.0 12.0 0.00 0.00 0.00 26 1013.5
20260905141544 70 157 5.0 9.0 0.00 0.00 0.00 15 1013.5
20260905140040 70 156 4.0 9.0 0.00 0.00 0.00 17 1013.4
20260905134534 70 130 6.0 11.0 0.00 0.00 0.00 10 1013.4
20260905133030 70 159 5.0 9.0 0.00 0.00 0.00 7 1013.6
20260905131534 69 134 6.0 12.0 0.00 0.00 0.00 100 1013.5
20260905130021 69 107 5.0 9.0 0.00 0.00 0.00 100 1013.5
20260905124516 67 136 4.0 9.0 0.00 0.00 0.00 100 1013.5
20260905123012 66 143 1.0 5.0 0.00 0.00 0.00 100 1013.6
20260905121508 66 110 2.0 4.0 0.00 0.00 0.00 100 1013.4
20260905120013 66 71 2.0 4.0 0.00 0.00 0.00 100 1013.6
20260905114700 66 163 2.0 4.0 0.00 0.00 0.00 100 1013.2
20260905113055 66 154 2.0 3.0 0.00 0.00 0.00 100 1013.2
20260905111621 66 27 0.0 0.0 0.00 0.00 0.00 100 1013.4
20260905110053 66 27 0.0 0.0 0.00 0.00 0.00 100 1013.5
20260905104605 67 27 0.0 0.0 0.00 0.00 0.00 100 1013.2
20260905103040 66 27 0.0 0.0 0.00 0.00 0.00 100 1013.1
20260905101535 66 27 0.0 0.0 0.00 0.00 0.00 100 1013.1
20260905100029 66 61 0.0 0.0 0.00 0.00 0.00 100 1012.7
20260905094544 66 61 0.0 0.0 0.00 0.00 0.00 100 1012.7
20260905093020 66 61 0.0 0.0 0.00 0.00 0.00 100 1012.4
20260905091515 66 61 0.0 0.0 0.00 0.00 0.00 100 1012.2
20260905090012 67 62 0.0 0.0 0.00 0.00 0.00 100 1012.1
20260905084506 67 62 0.0 0.0 0.00 0.00 0.00 100 1012.2
20260905083002 67 62 0.0 0.0 0.00 0.00 0.00 100 1012.4
20260905081557 67 62 0.0 0.0 0.00 0.00 0.00 100 1012.5
20260905080107 68 62 0.0 0.0 0.00 0.00 0.00 100 1012.0
20260905074559 68 62 0.0 0.0 0.00 0.00 0.00 100 1012.0
20260905073045 68 62 0.0 0.0 0.00 0.00 0.00 100 1012.1
20260905071546 68 61 0.0 0.0 0.00 0.00 0.00 100 1012.4
20260905070036 68 61 0.0 0.0 0.00 0.00 0.00 100 1012.5
20260905064531 68 61 0.0 0.0 0.00 0.00 0.00 100 1012.8
20260905063027 68 61 0.0 0.0 0.00 0.00 0.00 100 1013.0
20260905061530 68 61 0.0 0.0 0.00 0.00 0.00 100 1013.1
20260905060029 68 61 0.0 0.0 0.00 0.00 0.00 100 1013.1
20260905054521 68 61 0.0 0.0 0.00 0.00 0.00 100 1013.2
20260905053009 68 61 0.0 0.0 0.00 0.00 0.00 100 1013.2
20260905051515 68 61 0.0 0.0 0.00 0.00 0.00 100 1013.2
20260905050105 68 61 0.0 0.0 0.00 0.00 0.00 100 1013.3
20260905044556 68 61 0.0 0.0 0.00 0.00 0.00 100 1013.3
20260905043051 68 61 0.0 0.0 0.00 0.00 0.00 100 1013.4
20260905041547 68 61 0.0 0.0 0.00 0.00 0.00 100 1013.4
20260905040042 68 61 0.0 0.0 0.00 0.00 0.00 100 1013.2
20260905034538 68 55 0.0 0.0 0.00 0.00 0.00 100 1013.2
20260905033033 68 55 0.0 0.0 0.00 0.00 0.00 100 1013.2
20260905031537 68 55 0.0 0.0 0.00 0.00 0.00 100 1013.3
20260905030025 68 55 0.0 0.0 0.00 0.00 0.00 100 1013.5
20260905024538 69 54 0.0 0.0 0.00 0.00 0.00 100 1013.2
20260905023021 69 55 0.0 0.0 0.00 0.00 0.00 100 1013.4
20260905021511 69 55 0.0 0.0 0.00 0.00 0.00 100 1013.5